Time,TemperatureF,DewpointF,PressureIn,WindDirection,WindDirectionDegrees,WindSpeedMPH,WindSpeedGustMPH,Humidity,HourlyPrecipIn,Conditions,Clouds,dailyrainin,SoftwareType,DateUTC
2013-02-02 00:00:00,62.2,44.4,29.78,SSE,163,0.0,0.0,52,0.00,,,0.00,meteohub,2013-02-02 08:00:00,
2013-02-02 00:05:00,62.1,44.8,29.78,SSE,163,0.0,0.0,53,0.00,,,0.00,meteohub,2013-02-02 08:05:00,
2013-02-02 00:11:00,62.2,45.9,29.78,SSE,163,0.0,0.0,55,0.00,,,0.00,meteohub,2013-02-02 08:11:00,
2013-02-02 00:17:00,62.2,45.9,29.78,SSE,163,0.0,0.0,55,0.00,,,0.00,meteohub,2013-02-02 08:17:00,
2013-02-02 00:23:00,62.2,45.9,29.78,SSE,163,0.0,0.0,55,0.00,,,0.00,meteohub,2013-02-02 08:23:00,
2013-02-02 00:29:00,62.1,45.7,29.78,SSE,163,0.0,0.0,55,0.00,,,0.00,meteohub,2013-02-02 08:29:00,
2013-02-02 00:35:00,62.2,46.8,29.78,SSE,163,0.0,0.0,57,0.00,,,0.00,meteohub,2013-02-02 08:35:00,
2013-02-02 00:41:00,62.2,46.8,29.78,North,0,0.0,0.0,57,0.00,,,0.00,meteohub,2013-02-02 08:41:00,
2013-02-02 00:47:00,62.6,48.0,29.78,North,0,0.0,0.0,59,0.00,,,0.00,meteohub,2013-02-02 08:47:00,
2013-02-02 00:53:00,63.0,48.9,29.78,North,3,0.0,0.0,60,0.00,,,0.00,meteohub,2013-02-02 08:53:00,
2013-02-02 00:59:00,63.1,49.5,29.78,North,0,0.0,0.0,61,0.00,,,0.00,meteohub,2013-02-02 08:59:00,
2013-02-02 01:05:00,63.1,48.2,29.78,North,350,0.0,0.0,58,0.00,,,0.00,meteohub,2013-02-02 09:05:00,
2013-02-02 01:11:00,63.0,46.6,29.78,NNE,16,0.0,0.0,55,0.00,,,0.00,meteohub,2013-02-02 09:11:00,
2013-02-02 01:17:00,62.8,46.4,29.78,NNE,18,0.0,0.0,55,0.00,,,0.00,meteohub,2013-02-02 09:17:00,
2013-02-02 01:23:00,63.0,46.9,29.78,NNE,18,0.0,0.0,56,0.00,,,0.00,meteohub,2013-02-02 09:23:00,
2013-02-02 01:29:00,63.0,46.0,29.78,NNE,18,0.0,0.0,54,0.00,,,0.00,meteohub,2013-02-02 09:29:00,
2013-02-02 01:35:00,62.8,43.3,29.78,North,0,0.0,0.0,49,0.00,,,0.00,meteohub,2013-02-02 09:35:00,
2013-02-02 01:41:00,62.4,37.8,29.75,NNW,345,4.0,0.0,40,0.00,,,0.00,meteohub,2013-02-02 09:41:00,
2013-02-02 01:47:00,62.2,35.6,29.75,North,350,0.0,5.0,37,0.00,,,0.00,meteohub,2013-02-02 09:47:00,
2013-02-02 01:53:00,62.6,36.0,29.75,SSE,148,0.0,5.0,37,0.00,,,0.00,meteohub,2013-02-02 09:53:00,
2013-02-02 02:00:00,62.6,37.2,29.78,SE,124,3.0,5.0,39,0.00,,,0.00,meteohub,2013-02-02 10:00:00,
2013-02-02 02:06:00,62.6,38.5,29.78,ESE,103,4.0,4.0,41,0.00,,,0.00,meteohub,2013-02-02 10:06:00,
2013-02-02 02:12:00,63.0,39.6,29.78,ESE,120,4.0,6.0,42,0.00,,,0.00,meteohub,2013-02-02 10:12:00,
2013-02-02 02:18:00,63.1,40.8,29.78,ESE,103,4.0,6.0,44,0.00,,,0.00,meteohub,2013-02-02 10:18:00,
2013-02-02 02:24:00,63.0,40.6,29.78,SE,143,2.0,6.0,44,0.00,,,0.00,meteohub,2013-02-02 10:24:00,
2013-02-02 02:30:00,62.6,40.5,29.78,SE,136,0.0,6.0,44,0.00,,,0.00,meteohub,2013-02-02 10:30:00,
2013-02-02 02:36:00,61.7,39.6,29.78,SE,136,0.0,3.0,44,0.00,,,0.00,meteohub,2013-02-02 10:36:00,
2013-02-02 02:42:00,61.5,40.5,29.78,SE,136,0.0,0.0,46,0.00,,,0.00,meteohub,2013-02-02 10:42:00,
2013-02-02 02:48:00,61.3,41.5,29.78,SE,136,0.0,0.0,48,0.00,,,0.00,meteohub,2013-02-02 10:48:00,
2013-02-02 02:54:00,61.7,42.3,29.78,SSE,160,0.0,0.0,49,0.00,,,0.00,meteohub,2013-02-02 10:54:00,
2013-02-02 03:00:00,61.5,42.3,29.78,ESE,109,0.0,0.0,49,0.00,,,0.00,meteohub,2013-02-02 11:00:00,
2013-02-02 03:06:00,61.5,42.6,29.78,ESE,108,0.0,0.0,50,0.00,,,0.00,meteohub,2013-02-02 11:06:00,
2013-02-02 03:12:00,61.0,42.8,29.78,North,3,0.0,0.0,51,0.00,,,0.00,meteohub,2013-02-02 11:12:00,
2013-02-02 03:18:00,60.8,42.1,29.78,North,3,0.0,0.0,50,0.00,,,0.00,meteohub,2013-02-02 11:18:00,
2013-02-02 03:24:00,60.1,41.9,29.78,North,3,0.0,0.0,51,0.00,,,0.00,meteohub,2013-02-02 11:24:00,
2013-02-02 03:30:00,59.5,41.4,29.78,North,3,0.0,0.0,51,0.00,,,0.00,meteohub,2013-02-02 11:30:00,
2013-02-02 03:36:00,59.2,41.5,29.78,North,3,0.0,0.0,52,0.00,,,0.00,meteohub,2013-02-02 11:36:00,
2013-02-02 03:42:00,59.2,41.5,29.78,North,11,0.0,0.0,52,0.00,,,0.00,meteohub,2013-02-02 11:42:00,
2013-02-02 03:48:00,59.2,41.5,29.78,North,11,0.0,0.0,52,0.00,,,0.00,meteohub,2013-02-02 11:48:00,
2013-02-02 03:54:00,59.5,41.9,29.78,North,11,0.0,0.0,52,0.00,,,0.00,meteohub,2013-02-02 11:54:00,
2013-02-02 04:00:00,59.7,42.1,29.78,North,11,0.0,0.0,52,0.00,,,0.00,meteohub,2013-02-02 12:00:00,
2013-02-02 04:06:00,59.5,41.4,29.78,NNE,13,0.0,0.0,51,0.00,,,0.00,meteohub,2013-02-02 12:06:00,
2013-02-02 04:12:00,59.5,41.4,29.78,NNE,13,0.0,0.0,51,0.00,,,0.00,meteohub,2013-02-02 12:12:00,
2013-02-02 04:18:00,59.5,41.4,29.78,NNE,13,0.0,0.0,51,0.00,,,0.00,meteohub,2013-02-02 12:18:00,
2013-02-02 04:24:00,59.7,41.0,29.78,North,357,0.0,0.0,50,0.00,,,0.00,meteohub,2013-02-02 12:24:00,
2013-02-02 04:30:00,59.9,40.6,29.78,North,357,0.0,0.0,49,0.00,,,0.00,meteohub,2013-02-02 12:30:00,
2013-02-02 04:36:00,60.3,40.5,29.78,North,357,0.0,0.0,48,0.00,,,0.00,meteohub,2013-02-02 12:36:00,
2013-02-02 04:42:00,60.4,40.1,29.78,North,357,0.0,0.0,47,0.00,,,0.00,meteohub,2013-02-02 12:42:00,
2013-02-02 04:48:00,60.8,39.9,29.78,SE,127,3.0,0.0,46,0.00,,,0.00,meteohub,2013-02-02 12:48:00,
2013-02-02 04:54:00,61.2,39.7,29.78,SE,133,0.0,4.0,45,0.00,,,0.00,meteohub,2013-02-02 12:54:00,
2013-02-02 05:01:00,60.4,37.8,29.75,North,6,0.0,4.0,43,0.00,,,0.00,meteohub,2013-02-02 13:01:00,
2013-02-02 05:07:00,60.1,37.6,29.75,North,6,0.0,3.0,43,0.00,,,0.00,meteohub,2013-02-02 13:07:00,
2013-02-02 05:13:00,60.4,37.8,29.78,North,6,0.0,0.0,43,0.00,,,0.00,meteohub,2013-02-02 13:13:00,
2013-02-02 05:19:00,60.6,37.9,29.78,North,6,0.0,0.0,43,0.00,,,0.00,meteohub,2013-02-02 13:19:00,
2013-02-02 05:25:00,60.1,36.9,29.78,North,6,0.0,0.0,42,0.00,,,0.00,meteohub,2013-02-02 13:25:00,
2013-02-02 05:31:00,59.7,36.5,29.78,North,6,0.0,0.0,42,0.00,,,0.00,meteohub,2013-02-02 13:31:00,
2013-02-02 05:37:00,59.4,36.3,29.78,North,6,0.0,0.0,42,0.00,,,0.00,meteohub,2013-02-02 13:37:00,
2013-02-02 05:43:00,59.9,37.4,29.78,North,6,0.0,0.0,43,0.00,,,0.00,meteohub,2013-02-02 13:43:00,
2013-02-02 05:49:00,60.4,37.8,29.78,North,6,0.0,0.0,43,0.00,,,0.00,meteohub,2013-02-02 13:49:00,
2013-02-02 05:55:00,61.0,36.5,29.78,North,6,0.0,0.0,40,0.00,,,0.00,meteohub,2013-02-02 13:55:00,
2013-02-02 06:01:00,61.5,36.3,29.78,North,6,0.0,0.0,39,0.00,,,0.00,meteohub,2013-02-02 14:01:00,
2013-02-02 06:07:00,61.0,34.5,29.78,North,6,0.0,0.0,37,0.00,,,0.00,meteohub,2013-02-02 14:07:00,
2013-02-02 06:13:00,60.4,34.0,29.78,North,6,0.0,0.0,37,0.00,,,0.00,meteohub,2013-02-02 14:13:00,
2013-02-02 06:19:00,59.9,33.6,29.78,North,6,0.0,0.0,37,0.00,,,0.00,meteohub,2013-02-02 14:19:00,
2013-02-02 06:25:00,60.4,34.0,29.78,South,186,0.0,0.0,37,0.00,,,0.00,meteohub,2013-02-02 14:25:00,
2013-02-02 06:31:00,60.4,34.0,29.78,South,186,0.0,0.0,37,0.00,,,0.00,meteohub,2013-02-02 14:31:00,
2013-02-02 06:37:00,59.9,33.6,29.78,South,186,0.0,0.0,37,0.00,,,0.00,meteohub,2013-02-02 14:37:00,
2013-02-02 06:43:00,59.7,33.4,29.78,South,186,0.0,0.0,37,0.00,,,0.00,meteohub,2013-02-02 14:43:00,
2013-02-02 06:49:00,59.5,33.3,29.78,South,186,0.0,0.0,37,0.00,,,0.00,meteohub,2013-02-02 14:49:00,
2013-02-02 06:55:00,59.7,33.4,29.78,South,186,0.0,0.0,37,0.00,,,0.00,meteohub,2013-02-02 14:55:00,
2013-02-02 07:01:00,60.1,33.8,29.78,South,186,0.0,0.0,37,0.00,,,0.00,meteohub,2013-02-02 15:01:00,
2013-02-02 07:07:00,60.4,34.0,29.78,South,186,0.0,0.0,37,0.00,,,0.00,meteohub,2013-02-02 15:07:00,
2013-02-02 07:13:00,61.0,34.5,29.78,South,186,0.0,0.0,37,0.00,,,0.00,meteohub,2013-02-02 15:13:00,
2013-02-02 07:19:00,61.2,33.3,29.78,South,186,0.0,0.0,35,0.00,,,0.00,meteohub,2013-02-02 15:19:00,
2013-02-02 07:25:00,61.5,33.6,29.78,South,186,0.0,0.0,35,0.00,,,0.00,meteohub,2013-02-02 15:25:00,
2013-02-02 07:32:00,62.1,33.4,29.78,South,186,0.0,0.0,34,0.00,,,0.00,meteohub,2013-02-02 15:32:00,
2013-02-02 07:38:00,62.8,33.3,29.78,South,186,0.0,0.0,33,0.00,,,0.00,meteohub,2013-02-02 15:38:00,
2013-02-02 07:44:00,63.5,33.8,29.78,South,186,0.0,0.0,33,0.00,,,0.00,meteohub,2013-02-02 15:44:00,
2013-02-02 07:50:00,63.5,33.8,29.78,South,186,0.0,0.0,33,0.00,,,0.00,meteohub,2013-02-02 15:50:00,
2013-02-02 07:56:00,64.2,34.5,29.78,South,186,0.0,0.0,33,0.00,,,0.00,meteohub,2013-02-02 15:56:00,
2013-02-02 08:02:00,64.4,34.0,29.78,South,186,0.0,0.0,32,0.00,,,0.00,meteohub,2013-02-02 16:02:00,
2013-02-02 08:08:00,64.8,33.4,29.78,South,186,0.0,0.0,31,0.00,,,0.00,meteohub,2013-02-02 16:08:00,
2013-02-02 08:14:00,65.1,33.8,29.78,South,186,0.0,0.0,31,0.00,,,0.00,meteohub,2013-02-02 16:14:00,
2013-02-02 08:20:00,65.5,34.9,29.78,South,186,0.0,0.0,32,0.00,,,0.00,meteohub,2013-02-02 16:20:00,
2013-02-02 08:26:00,65.8,33.6,29.78,South,186,0.0,0.0,30,0.00,,,0.00,meteohub,2013-02-02 16:26:00,
2013-02-02 08:32:00,66.4,34.0,29.78,NNW,343,0.0,0.0,30,0.00,,,0.00,meteohub,2013-02-02 16:32:00,
2013-02-02 08:38:00,67.3,35.6,29.78,NNW,343,0.0,0.0,31,0.00,,,0.00,meteohub,2013-02-02 16:38:00,
2013-02-02 08:44:00,67.8,35.2,29.78,NNW,343,0.0,0.0,30,0.00,,,0.00,meteohub,2013-02-02 16:44:00,
2013-02-02 08:50:00,66.0,32.9,29.78,South,173,4.0,4.0,29,0.00,,,0.00,meteohub,2013-02-02 16:50:00,
2013-02-02 08:56:00,66.2,32.2,29.81,ESE,116,0.0,6.0,28,0.00,,,0.00,meteohub,2013-02-02 16:56:00,
2013-02-02 09:02:00,66.2,31.3,29.81,ESE,107,0.0,6.0,27,0.00,,,0.00,meteohub,2013-02-02 17:02:00,
2013-02-02 09:08:00,66.9,33.6,29.81,South,177,0.0,6.0,29,0.00,,,0.00,meteohub,2013-02-02 17:08:00,
2013-02-02 09:14:00,66.9,31.8,29.81,South,176,0.0,0.0,27,0.00,,,0.00,meteohub,2013-02-02 17:14:00,
2013-02-02 09:20:00,67.6,37.6,29.81,SSW,197,0.0,4.0,33,0.00,,,0.00,meteohub,2013-02-02 17:20:00,
2013-02-02 09:26:00,68.0,37.8,29.81,SSW,207,0.0,4.0,33,0.00,,,0.00,meteohub,2013-02-02 17:26:00,
2013-02-02 09:32:00,67.6,37.6,29.81,SSW,204,0.0,4.0,33,0.00,,,0.00,meteohub,2013-02-02 17:32:00,
2013-02-02 09:38:00,68.2,37.2,29.81,SSW,209,0.0,0.0,32,0.00,,,0.00,meteohub,2013-02-02 17:38:00,
2013-02-02 09:44:00,68.9,37.8,29.81,SSW,209,0.0,0.0,32,0.00,,,0.00,meteohub,2013-02-02 17:44:00,
2013-02-02 09:50:00,68.5,37.6,29.81,South,187,0.0,0.0,32,0.00,,,0.00,meteohub,2013-02-02 17:50:00,
2013-02-02 09:56:00,68.4,37.4,29.81,South,176,0.0,5.0,32,0.00,,,0.00,meteohub,2013-02-02 17:56:00,
2013-02-02 10:02:00,68.9,36.1,29.81,South,172,3.0,5.0,30,0.00,,,0.00,meteohub,2013-02-02 18:02:00,
2013-02-02 10:08:00,71.1,36.3,29.81,SSE,164,0.0,5.0,28,0.00,,,0.00,meteohub,2013-02-02 18:08:00,
2013-02-02 10:14:00,73.0,35.1,29.81,SW,223,0.0,3.0,25,0.00,,,0.00,meteohub,2013-02-02 18:14:00,
2013-02-02 10:20:00,73.4,34.3,29.81,SSW,196,0.0,0.0,24,0.00,,,0.00,meteohub,2013-02-02 18:20:00,
2013-02-02 10:27:00,70.9,36.1,29.81,SSW,205,4.0,0.0,28,0.00,,,0.00,meteohub,2013-02-02 18:27:00,
2013-02-02 10:32:00,70.5,39.2,29.81,SW,221,0.0,5.0,32,0.00,,,0.00,meteohub,2013-02-02 18:32:00,
2013-02-02 10:37:00,69.8,38.7,29.81,SSW,202,4.0,5.0,32,0.00,,,0.00,meteohub,2013-02-02 18:37:00,
2013-02-02 10:43:00,70.9,38.7,29.81,South,183,0.0,5.0,31,0.00,,,0.00,meteohub,2013-02-02 18:43:00,
2013-02-02 10:49:00,70.0,38.8,29.81,South,186,2.0,4.0,32,0.00,,,0.00,meteohub,2013-02-02 18:49:00,
2013-02-02 10:55:00,71.2,39.0,29.81,SW,222,0.0,4.0,31,0.00,,,0.00,meteohub,2013-02-02 18:55:00,
2013-02-02 11:01:00,73.6,37.6,29.81,West,264,2.0,4.0,27,0.00,,,0.00,meteohub,2013-02-02 19:01:00,
2013-02-02 11:07:00,73.4,35.4,29.81,WSW,254,0.0,4.0,25,0.00,,,0.00,meteohub,2013-02-02 19:07:00,
2013-02-02 11:13:00,73.2,36.3,29.78,WSW,251,3.0,4.0,26,0.00,,,0.00,meteohub,2013-02-02 19:13:00,
2013-02-02 11:19:00,75.7,37.4,29.78,NW,318,0.0,4.0,25,0.00,,,0.00,meteohub,2013-02-02 19:19:00,
2013-02-02 11:25:00,76.6,36.1,29.78,NW,307,0.0,4.0,23,0.00,,,0.00,meteohub,2013-02-02 19:25:00,
2013-02-02 11:31:00,73.8,34.7,29.78,West,263,3.0,3.0,24,0.00,,,0.00,meteohub,2013-02-02 19:31:00,
2013-02-02 11:37:00,72.7,35.8,29.78,WSW,251,4.0,4.0,26,0.00,,,0.00,meteohub,2013-02-02 19:37:00,
2013-02-02 11:43:00,72.9,37.8,29.78,West,274,0.0,4.0,28,0.00,,,0.00,meteohub,2013-02-02 19:43:00,
2013-02-02 11:49:00,74.5,36.3,29.78,WSW,254,3.0,4.0,25,0.00,,,0.00,meteohub,2013-02-02 19:49:00,
2013-02-02 11:55:00,74.8,36.7,29.78,SW,231,0.0,4.0,25,0.00,,,0.00,meteohub,2013-02-02 19:55:00,
2013-02-02 12:01:00,76.3,35.8,29.78,West,276,0.0,4.0,23,0.00,,,0.00,meteohub,2013-02-02 20:01:00,
2013-02-02 12:07:00,77.2,36.5,29.78,WSW,253,3.0,4.0,23,0.00,,,0.00,meteohub,2013-02-02 20:07:00,
2013-02-02 12:13:00,77.4,37.8,29.78,SW,235,6.0,6.0,24,0.00,,,0.00,meteohub,2013-02-02 20:13:00,
2013-02-02 12:19:00,76.3,36.9,29.78,NW,311,4.0,6.0,24,0.00,,,0.00,meteohub,2013-02-02 20:19:00,
2013-02-02 12:25:00,75.9,36.5,29.78,West,261,4.0,7.0,24,0.00,,,0.00,meteohub,2013-02-02 20:25:00,
2013-02-02 12:31:00,75.2,34.9,29.75,NW,308,3.0,7.0,23,0.00,,,0.00,meteohub,2013-02-02 20:31:00,
2013-02-02 12:37:00,73.6,33.4,29.75,NW,311,4.0,6.0,23,0.00,,,0.00,meteohub,2013-02-02 20:37:00,
2013-02-02 12:43:00,73.2,33.3,29.75,NW,313,3.0,5.0,23,0.00,,,0.00,meteohub,2013-02-02 20:43:00,
2013-02-02 12:49:00,72.1,32.4,29.75,NNW,332,3.0,5.0,23,0.00,,,0.00,meteohub,2013-02-02 20:49:00,
2013-02-02 12:55:00,72.1,32.4,29.75,West,280,3.0,6.0,23,0.00,,,0.00,meteohub,2013-02-02 20:55:00,
2013-02-02 13:01:00,72.1,32.4,29.75,NW,318,0.0,6.0,23,0.00,,,0.00,meteohub,2013-02-02 21:01:00,
2013-02-02 13:07:00,70.7,31.1,29.75,WNW,300,5.0,5.0,23,0.00,,,0.00,meteohub,2013-02-02 21:07:00,
2013-02-02 13:13:00,70.7,32.2,29.75,WNW,295,4.0,6.0,24,0.00,,,0.00,meteohub,2013-02-02 21:13:00,
2013-02-02 13:19:00,71.4,32.7,29.75,NW,312,4.0,6.0,24,0.00,,,0.00,meteohub,2013-02-02 21:19:00,
2013-02-02 13:25:00,71.1,32.4,29.72,West,281,4.0,5.0,24,0.00,,,0.00,meteohub,2013-02-02 21:25:00,
2013-02-02 13:31:00,70.9,33.3,29.72,WSW,249,2.0,6.0,25,0.00,,,0.00,meteohub,2013-02-02 21:31:00,
2013-02-02 13:37:00,71.2,32.5,29.72,WNW,298,0.0,6.0,24,0.00,,,0.00,meteohub,2013-02-02 21:37:00,
2013-02-02 13:43:00,71.1,33.4,29.72,West,278,0.0,6.0,25,0.00,,,0.00,meteohub,2013-02-02 21:43:00,
2013-02-02 13:49:00,70.5,33.1,29.72,WNW,283,0.0,4.0,25,0.00,,,0.00,meteohub,2013-02-02 21:49:00,
2013-02-02 13:56:00,70.7,32.2,29.72,West,281,0.0,4.0,24,0.00,,,0.00,meteohub,2013-02-02 21:56:00,
2013-02-02 14:02:00,71.4,32.7,29.72,WNW,291,0.0,4.0,24,0.00,,,0.00,meteohub,2013-02-02 22:02:00,
2013-02-02 14:08:00,71.6,34.0,29.72,SSW,212,4.0,4.0,25,0.00,,,0.00,meteohub,2013-02-02 22:08:00,
2013-02-02 14:14:00,71.4,36.7,29.72,SW,220,0.0,4.0,28,0.00,,,0.00,meteohub,2013-02-02 22:14:00,
2013-02-02 14:20:00,71.6,37.6,29.72,SSW,209,3.0,4.0,29,0.00,,,0.00,meteohub,2013-02-02 22:20:00,
2013-02-02 14:26:00,69.8,39.4,29.72,WSW,254,2.0,4.0,33,0.00,,,0.00,meteohub,2013-02-02 22:26:00,
2013-02-02 14:32:00,70.0,40.3,29.72,WNW,286,0.0,5.0,34,0.00,,,0.00,meteohub,2013-02-02 22:32:00,
2013-02-02 14:38:00,70.2,39.7,29.72,WNW,284,0.0,5.0,33,0.00,,,0.00,meteohub,2013-02-02 22:38:00,
2013-02-02 14:44:00,70.2,40.5,29.72,NW,305,0.0,5.0,34,0.00,,,0.00,meteohub,2013-02-02 22:44:00,
2013-02-02 14:50:00,70.3,40.6,29.72,NW,312,0.0,0.0,34,0.00,,,0.00,meteohub,2013-02-02 22:50:00,
2013-02-02 14:56:00,70.9,40.3,29.72,NNW,333,0.0,0.0,33,0.00,,,0.00,meteohub,2013-02-02 22:56:00,
2013-02-02 15:02:00,71.1,33.4,29.72,North,353,3.0,4.0,25,0.00,,,0.00,meteohub,2013-02-02 23:02:00,
2013-02-02 15:08:00,72.7,32.7,29.72,NNW,338,0.0,5.0,23,0.00,,,0.00,meteohub,2013-02-02 23:08:00,
2013-02-02 15:14:00,73.2,33.3,29.72,North,0,0.0,5.0,23,0.00,,,0.00,meteohub,2013-02-02 23:14:00,
2013-02-02 15:20:00,73.6,32.4,29.72,NW,325,4.0,5.0,22,0.00,,,0.00,meteohub,2013-02-02 23:20:00,
2013-02-02 15:26:00,73.8,32.5,29.69,NNW,330,3.0,5.0,22,0.00,,,0.00,meteohub,2013-02-02 23:26:00,
2013-02-02 15:32:00,73.8,32.5,29.69,NW,321,4.0,5.0,22,0.00,,,0.00,meteohub,2013-02-02 23:32:00,
2013-02-02 15:38:00,73.6,32.4,29.69,WNW,297,0.0,5.0,22,0.00,,,0.00,meteohub,2013-02-02 23:38:00,
2013-02-02 15:44:00,73.4,33.3,29.72,WNW,285,0.0,5.0,23,0.00,,,0.00,meteohub,2013-02-02 23:44:00,
2013-02-02 15:50:00,73.2,35.2,29.72,West,261,0.0,4.0,25,0.00,,,0.00,meteohub,2013-02-02 23:50:00,
2013-02-02 15:56:00,72.5,34.7,29.72,WSW,250,0.0,4.0,25,0.00,,,0.00,meteohub,2013-02-02 23:56:00,
2013-02-02 16:02:00,70.7,36.9,29.72,WSW,239,5.0,5.0,29,0.00,,,0.00,meteohub,2013-02-03 00:02:00,
2013-02-02 16:08:00,68.4,39.6,29.72,NNW,331,5.0,10.0,35,0.00,,,0.00,meteohub,2013-02-03 00:08:00,
2013-02-02 16:14:00,67.5,42.3,29.72,NW,319,4.0,10.0,40,0.00,,,0.00,meteohub,2013-02-03 00:14:00,
2013-02-02 16:20:00,66.9,43.2,29.72,WNW,296,5.0,9.0,42,0.00,,,0.00,meteohub,2013-02-03 00:20:00,
2013-02-02 16:26:00,66.9,43.2,29.75,NW,325,3.0,8.0,42,0.00,,,0.00,meteohub,2013-02-03 00:26:00,
2013-02-02 16:32:00,66.9,43.2,29.75,NW,312,6.0,8.0,42,0.00,,,0.00,meteohub,2013-02-03 00:32:00,
2013-02-02 16:37:00,66.7,41.7,29.75,North,349,4.0,6.0,40,0.00,,,0.00,meteohub,2013-02-03 00:37:00,
2013-02-02 16:43:00,66.7,39.6,29.75,NNW,341,4.0,8.0,37,0.00,,,0.00,meteohub,2013-02-03 00:43:00,
2013-02-02 16:49:00,66.9,39.0,29.75,WNW,285,0.0,8.0,36,0.00,,,0.00,meteohub,2013-02-03 00:49:00,
2013-02-02 16:55:00,66.9,38.3,29.75,NW,319,3.0,6.0,35,0.00,,,0.00,meteohub,2013-02-03 00:55:00,
2013-02-02 17:01:00,66.7,37.4,29.72,WNW,299,3.0,6.0,34,0.00,,,0.00,meteohub,2013-02-03 01:01:00,
2013-02-02 17:07:00,66.7,37.4,29.72,NNW,327,0.0,4.0,34,0.00,,,0.00,meteohub,2013-02-03 01:07:00,
2013-02-02 17:13:00,66.4,36.3,29.75,North,357,3.0,4.0,33,0.00,,,0.00,meteohub,2013-02-03 01:13:00,
2013-02-02 17:19:00,66.2,35.4,29.75,NW,309,4.0,5.0,32,0.00,,,0.00,meteohub,2013-02-03 01:19:00,
2013-02-02 17:25:00,66.6,35.8,29.75,NW,324,0.0,5.0,32,0.00,,,0.00,meteohub,2013-02-03 01:25:00,
2013-02-02 17:31:00,66.6,35.1,29.75,NNW,334,0.0,5.0,31,0.00,,,0.00,meteohub,2013-02-03 01:31:00,
2013-02-02 17:37:00,66.6,34.2,29.75,NNW,332,0.0,4.0,30,0.00,,,0.00,meteohub,2013-02-03 01:37:00,
2013-02-02 17:43:00,66.9,34.5,29.75,NW,326,0.0,0.0,30,0.00,,,0.00,meteohub,2013-02-03 01:43:00,
2013-02-02 17:49:00,67.1,33.8,29.75,NW,324,3.0,0.0,29,0.00,,,0.00,meteohub,2013-02-03 01:49:00,
2013-02-02 17:55:00,68.0,31.8,29.75,North,357,6.0,6.0,26,0.00,,,0.00,meteohub,2013-02-03 01:55:00,
2013-02-02 18:01:00,68.7,32.4,29.75,NNE,15,4.0,8.0,26,0.00,,,0.00,meteohub,2013-02-03 02:01:00,
2013-02-02 18:07:00,69.1,31.8,29.75,North,353,8.0,8.0,25,0.00,,,0.00,meteohub,2013-02-03 02:07:00,
2013-02-02 18:13:00,69.1,31.8,29.75,NNW,331,5.0,9.0,25,0.00,,,0.00,meteohub,2013-02-03 02:13:00,
2013-02-02 18:19:00,69.3,32.0,29.75,NNW,342,4.0,9.0,25,0.00,,,0.00,meteohub,2013-02-03 02:19:00,
2013-02-02 18:25:00,69.4,32.0,29.75,NW,324,4.0,7.0,25,0.00,,,0.00,meteohub,2013-02-03 02:25:00,
2013-02-02 18:31:00,69.6,32.2,29.75,North,357,6.0,8.0,25,0.00,,,0.00,meteohub,2013-02-03 02:31:00,
2013-02-02 18:37:00,69.8,32.4,29.75,NW,307,3.0,8.0,25,0.00,,,0.00,meteohub,2013-02-03 02:37:00,
2013-02-02 18:43:00,69.8,32.4,29.75,NW,317,3.0,8.0,25,0.00,,,0.00,meteohub,2013-02-03 02:43:00,
2013-02-02 18:49:00,69.8,32.4,29.75,NNW,343,5.0,8.0,25,0.00,,,0.00,meteohub,2013-02-03 02:49:00,
2013-02-02 18:55:00,69.6,32.2,29.75,NW,323,3.0,7.0,25,0.00,,,0.00,meteohub,2013-02-03 02:55:00,
2013-02-02 19:01:00,69.4,32.0,29.75,NW,323,0.0,7.0,25,0.00,,,0.00,meteohub,2013-02-03 03:01:00,
2013-02-02 19:07:00,69.1,31.8,29.75,NW,318,0.0,5.0,25,0.00,,,0.00,meteohub,2013-02-03 03:07:00,
2013-02-02 19:13:00,69.1,33.6,29.75,South,184,6.0,6.0,27,0.00,,,0.00,meteohub,2013-02-03 03:13:00,
2013-02-02 19:19:00,68.0,37.0,29.75,NNW,341,3.0,6.0,32,0.00,,,0.00,meteohub,2013-02-03 03:19:00,
2013-02-02 19:25:00,67.1,38.5,29.78,WNW,294,3.0,7.0,35,0.00,,,0.00,meteohub,2013-02-03 03:25:00,
2013-02-02 19:31:00,66.6,39.6,29.78,NNE,19,3.0,7.0,37,0.00,,,0.00,meteohub,2013-02-03 03:31:00,
2013-02-02 19:37:00,66.4,40.6,29.78,WNW,288,0.0,6.0,39,0.00,,,0.00,meteohub,2013-02-03 03:37:00,
2013-02-02 19:44:00,66.2,44.2,29.78,NW,322,0.0,4.0,45,0.00,,,0.00,meteohub,2013-02-03 03:44:00,
2013-02-02 19:50:00,66.0,46.4,29.78,NNW,344,3.0,4.0,49,0.00,,,0.00,meteohub,2013-02-03 03:50:00,
2013-02-02 19:56:00,66.0,46.4,29.78,NNW,345,3.0,4.0,49,0.00,,,0.00,meteohub,2013-02-03 03:56:00,
2013-02-02 20:02:00,66.2,45.9,29.78,WNW,294,0.0,4.0,48,0.00,,,0.00,meteohub,2013-02-03 04:02:00,
2013-02-02 20:08:00,66.2,44.8,29.78,NNE,17,0.0,4.0,46,0.00,,,0.00,meteohub,2013-02-03 04:08:00,
2013-02-02 20:14:00,66.4,43.9,29.75,SSW,206,0.0,5.0,44,0.00,,,0.00,meteohub,2013-02-03 04:14:00,
2013-02-02 20:20:00,66.6,45.7,29.75,SSW,193,0.0,5.0,47,0.00,,,0.00,meteohub,2013-02-03 04:20:00,
2013-02-02 20:26:00,66.2,45.9,29.75,SSW,205,0.0,4.0,48,0.00,,,0.00,meteohub,2013-02-03 04:26:00,
2013-02-02 20:32:00,66.2,46.9,29.75,SSW,209,0.0,4.0,50,0.00,,,0.00,meteohub,2013-02-03 04:32:00,
2013-02-02 20:38:00,66.0,46.8,29.75,SW,225,0.0,0.0,50,0.00,,,0.00,meteohub,2013-02-03 04:38:00,
2013-02-02 20:44:00,66.0,46.8,29.75,SW,225,0.0,0.0,50,0.00,,,0.00,meteohub,2013-02-03 04:44:00,
2013-02-02 20:50:00,66.2,46.4,29.75,SW,228,0.0,0.0,49,0.00,,,0.00,meteohub,2013-02-03 04:50:00,
2013-02-02 20:56:00,66.2,45.9,29.75,SW,217,0.0,4.0,48,0.00,,,0.00,meteohub,2013-02-03 04:56:00,
2013-02-02 21:01:00,66.2,45.9,29.75,SSW,197,0.0,4.0,48,0.00,,,0.00,meteohub,2013-02-03 05:01:00,
2013-02-02 21:02:00,66.0,45.7,29.75,SSW,197,0.0,4.0,48,0.00,,,0.00,meteohub,2013-02-03 05:02:00,
2013-02-02 21:04:00,66.0,45.7,29.75,SSW,197,0.0,4.0,48,0.00,,,0.00,meteohub,2013-02-03 05:04:00,
2013-02-02 21:10:00,65.8,45.7,29.75,SSW,197,0.0,3.0,48,0.00,,,0.00,meteohub,2013-02-03 05:10:00,
2013-02-02 21:16:00,65.8,45.7,29.75,SW,215,0.0,3.0,48,0.00,,,0.00,meteohub,2013-02-03 05:16:00,
2013-02-02 21:17:00,65.8,45.7,29.75,SW,215,0.0,3.0,48,0.00,,,0.00,meteohub,2013-02-03 05:17:00,
2013-02-02 21:22:00,65.8,45.7,29.75,SSW,213,0.0,3.0,48,0.00,,,0.00,meteohub,2013-02-03 05:22:00,
2013-02-02 21:28:00,65.7,45.0,29.75,SSW,213,0.0,3.0,47,0.00,,,0.00,meteohub,2013-02-03 05:28:00,
2013-02-02 21:34:00,65.5,44.8,29.75,SW,216,0.0,0.0,47,0.00,,,0.00,meteohub,2013-02-03 05:34:00,
2013-02-02 21:40:00,65.7,45.0,29.75,North,357,0.0,0.0,47,0.00,,,0.00,meteohub,2013-02-03 05:40:00,
2013-02-02 21:46:00,65.8,44.4,29.75,NNE,20,0.0,0.0,46,0.00,,,0.00,meteohub,2013-02-03 05:46:00,
2013-02-02 21:52:00,65.8,43.9,29.75,NNE,25,0.0,0.0,45,0.00,,,0.00,meteohub,2013-02-03 05:52:00,
2013-02-02 21:58:00,65.8,43.3,29.75,NNE,25,0.0,0.0,44,0.00,,,0.00,meteohub,2013-02-03 05:58:00,
2013-02-02 22:04:00,66.2,43.7,29.75,ESE,123,0.0,0.0,44,0.00,,,0.00,meteohub,2013-02-03 06:04:00,
2013-02-02 22:11:00,66.0,44.1,29.75,SE,138,3.0,3.0,45,0.00,,,0.00,meteohub,2013-02-03 06:11:00,
2013-02-02 22:17:00,66.0,44.1,29.75,SE,131,0.0,3.0,45,0.00,,,0.00,meteohub,2013-02-03 06:17:00,
2013-02-02 22:23:00,66.0,44.1,29.75,ESE,114,0.0,3.0,45,0.00,,,0.00,meteohub,2013-02-03 06:23:00,
2013-02-02 22:29:00,66.0,43.5,29.75,East,94,0.0,3.0,44,0.00,,,0.00,meteohub,2013-02-03 06:29:00,
2013-02-02 22:35:00,66.2,43.7,29.75,SW,226,0.0,0.0,44,0.00,,,0.00,meteohub,2013-02-03 06:35:00,
2013-02-02 22:41:00,66.0,44.1,29.75,SW,226,0.0,0.0,45,0.00,,,0.00,meteohub,2013-02-03 06:41:00,
2013-02-02 22:47:00,66.0,44.1,29.75,SW,217,0.0,0.0,45,0.00,,,0.00,meteohub,2013-02-03 06:47:00,
2013-02-02 22:53:00,65.8,43.9,29.75,SW,217,0.0,0.0,45,0.00,,,0.00,meteohub,2013-02-03 06:53:00,
2013-02-02 22:59:00,65.7,44.2,29.75,SW,217,0.0,0.0,46,0.00,,,0.00,meteohub,2013-02-03 06:59:00,
2013-02-02 23:05:00,65.7,44.2,29.75,SW,217,0.0,0.0,46,0.00,,,0.00,meteohub,2013-02-03 07:05:00,
2013-02-02 23:11:00,65.8,44.4,29.75,NW,310,0.0,0.0,46,0.00,,,0.00,meteohub,2013-02-03 07:11:00,
2013-02-02 23:17:00,65.8,44.4,29.75,NW,310,0.0,0.0,46,0.00,,,0.00,meteohub,2013-02-03 07:17:00,
2013-02-02 23:23:00,66.0,44.6,29.75,NW,319,0.0,0.0,46,0.00,,,0.00,meteohub,2013-02-03 07:23:00,
2013-02-02 23:29:00,65.8,42.1,29.75,NW,321,0.0,0.0,42,0.00,,,0.00,meteohub,2013-02-03 07:29:00,
2013-02-02 23:35:00,66.6,38.1,29.75,North,0,4.0,6.0,35,0.00,,,0.00,meteohub,2013-02-03 07:35:00,
2013-02-02 23:41:00,66.9,37.6,29.75,North,0,5.0,6.0,34,0.00,,,0.00,meteohub,2013-02-03 07:41:00,
2013-02-02 23:47:00,66.9,37.6,29.75,North,0,4.0,6.0,34,0.00,,,0.00,meteohub,2013-02-03 07:47:00,
2013-02-02 23:53:00,66.9,36.9,29.75,North,4,4.0,6.0,33,0.00,,,0.00,meteohub,2013-02-03 07:53:00,
2013-02-02 23:59:00,66.9,36.9,29.75,NW,319,2.0,6.0,33,0.00,,,0.00,meteohub,2013-02-03 07:59:00,